Погода Кики Акки

Погода Кики Акки : погода сейчас, прогноз погоды и архив. Всё, что Вы хотите узнать о погоде Кики Акки!

Хотите узнать прогноз погоды Кики Акки? Тогда Вам сюда: Погода Кики Акки

Поиск расширенной информации на нашем сайте:

Другие новости

Новости СМИ2

Главная страница сайта

Новости сайта

03.07.2017

Напоминаем, что на нашем специализированном сайте Метеоцентр.Азия вы можете получить высокодетализированные автоматические прогнозы погоды по пунктам России, СНГ и мира в авиационном формате (включающие направление и скорость ветра, видимость, явления погоды, количество и форму облачности, нижнюю и верхнюю границу облачности).

Рекомендуем: Рыбалка сайт о рыбалке.

Погода Кики Акки - сегодня

Время (UTC), дата Ветер
(°,м/с) 
Видим.   Явления Облачность Т
(°С)
Тd
(°С)
f(%) Тe
(°С)
Pmin
(гПа)
dP
(гПа)
Po
(мм)
O2
(г/м3)
Тmin Tmax R s Состояние
почвы
18 20.02.18 тихо ()   20000 м    ясно 
-34.8 -38.7 68 -35  1028.4  0.5  767  356           
21 20.02.18 тихо ()   20000 м    ясно 
-34.9 -38.9 67 -35  1029.2  0.8  768  357           
00 21.02.18 тихо ()   20000 м    ясно 
-33.3 -37.2 68 -33  1029.6  0.8  768  355           
03 21.02.18 тихо ()   20000 м    10/0 верхняя 
[Ci fib]
-33.9 -37.8 68 -34  1030.3  0.7  769  356  -35.3      79  неравномерный
сухой снег
100% 
06 21.02.18 тихо ()   20000 м    ясно 
-23.8 -27.4 72 -24  1030.4  0.2  769  341           
09 21.02.18 230 (ЮЗ) 20000 м    ясно 
-20.7 -25 68 -21  1030.7  0.4  769  337           
12 21.02.18 тихо ()   20000 м    ясно 
-27.5 -30.3 77 -28  1030.6  -0.2  769  347           
15 21.02.18 тихо ()   20000 м    ясно 
-32.5 -36.1 70 -33  1030.4  -0.3  769  354    -20.3       
18 21.02.18 тихо ()   20000 м    ясно 
-34.7 -38.6 67 -35  1029.9  -0.6  769  357           
21 21.02.18 тихо ()   20000 м    ясно 
-35.9 -40 66 -36  1029.7  -0.2  768  359           
00 22.02.18 070 (В) 20000 м    ясно 
-34.9 -38.9 67 -36  1028.6  -1  768  357           
03 22.02.18 тихо ()   20000 м    ясно 
-34.5 -38.5 67 -35  1027.6  -1  767  356  -36.2      79  неравномерный
сухой снег
100% 
06 22.02.18 040 (СВ) 20000 м    3/0 верхняя 
[Ci fib]
-23.2 -26.5 74 -24  1026.4  -0.9  766  339           
09 22.02.18 080 (В) 20000 м    ясно 
-18.9 -22.8 71 -19  1024.9  -1.4  765  333           
12 22.02.18 040 (СВ) 20000 м    3/0 верхняя 
[Ci sp]
-24 -26.6 79 -24  1023.5  -1.5  764  339           
15 22.02.18 050 (СВ) 20000 м    ясно 
-29.4 -32.6 74 -30  1022.8  -0.8  763  347    -18.7       
18 22.02.18 010 (С) 20000 м    ясно 
-33.4 -37.1 69 -34  1022  -0.9  763  352           
21 22.02.18 010 (С) 20000 м    ясно 
-33.4 -37.1 69 -34  1022  -0.9  763  352           
00 23.02.18 360 (С) 20000 м    ясно 
-33 -36.7 69 -34  1020.3  -0.6  761  351           
03 23.02.18 350 (С) 20000 м    ясно 
-34.2 -38 68 -35  1019.3  -1  761  352  -35.2      78  неравномерный
сухой снег
100% 
06 23.02.18 360 (С) 20000 м    3/0 верхняя 
[Ci fib]
-26.9 -30.5 71 -28  1018  -1.1  760  342           
09 23.02.18 360 (С) 20000 м    6/0 верхняя 
[Ci sp]
-25.7 -29.6 70 -26  1017.3  -0.7  759  340           
12 23.02.18 360 (С) 20000 м    10/0 средняя, верхняя 
[Ac trans|Ci fib]
-27.4 -30.7 73 -28  1017.3  759  342           
15 23.02.18 360 (С) 10 км  снежные кристаллы  10/0 верхняя 
[Cs]
-29.8 -33.3 72 -31  1016.8  -0.5  759  345    -24.4  0.2     
18 23.02.18 320 (СЗ) 10 км  снежные кристаллы  10/0 верхняя 
[Cs]
-31.4 -35 71 -32  1016.3  -0.6  758  347           
Время (UTC), дата Ветер
(°,м/с) 
Видим.   Явления Облачность Т
(°С)
Тd
(°С)
f(%) Тe
(°С)
Pmin
(гПа)
dP
(гПа)
Po
(мм)
O2
(г/м3)
Тmin Tmax R s Состояние
почвы

Для получения пояснительной информации подведите курсор к названию столбца.

ПОГОДА Кики Акки - архив

Всё, что Вы хотите узнать о погоде Кики Акки - удобно и подробно!

Выберите нужную дату (начиная с 1 января 2015* года) и нажмите кнопку "Найти".
Будут отображены архивные сводки погоды по пункту Кики Акки, начиная с указанной даты.


Отображать данные в формате CSV (для использования в таблицах Excel)


Внимание! Наш архив погоды предназначен исключительно для личного некоммерческого использования в познавательных целях. Если Вам необходимы официальные справки о состоянии погоды (для производственных, юридических, коммерческих и т.п. целей), обращайтесь в органы Росгидромета.

*Примечание: данная дата относится к архиву по метеостанциям СССР (Россия, СНГ, Балтия).
Архив по метеостанциям Зарубежной Европы и Азии (кроме Китая) хранится 10 дней, по другим регионам земного шара (Китай, Африка, Америка, Австралия, Океания) - 1 день.

Кики Акки - район местоположения метеостанции


Название, широта, долгота, высота метеостанции:
Кики Акки (Толька) 63.8°ш. 82.7°д. 33 м над ур. моря [Российская Федерация]

Дополнительная информация

В oтличие oт бoльшинства пoгoдных сайтoв мы публикуем пoдрoбную метеoинфoрмацию в детальнoм прoфессиoнальнoм фoрмате.

Характеристики температуры и влажнoсти вoздуха измеряются на высoте 2 м в тени вдали oт зданий и деревьев.
Скoрoсть ветра измеряется на высoте 10 м (на урoвне рoста челoвека скoрoсть ветра ниже в 1.5-2 раза). Если метеoстанция нахoдится в гoрoде или в лесу, тo скoрoсть ветра занижена на 2-4 м/с пo сравнению с oткрытым местoм. Скoрoсть ветра над акватoриями крупных рек и oзёр, а также на вершинах хoлмoв на 2-5 м/с выше, чем в oбычных услoвиях.
Атмoсфернoе давление в разных тoчках местнoсти мoжет значительнo oтличаться oт давления на метеoстанции, в зависимoсти oт услoвий рельефа (при пoдъёме на 10 м давление пoнижается примернo на 1 мм рт.ст.).